TimeCST,TemperatureF,Dew PointF,Humidity,Sea Level PressureIn,VisibilityMPH,Wind Direction,Wind SpeedMPH,Gust SpeedMPH,PrecipitationIn,Events,Conditions,WindDirDegrees,DateUTC
12:15 AM,42.8,30.2,61,30.32,10.0,Calm,Calm,-,N/A,,Clear,0,2012-12-05 06:15:00
12:35 AM,41.0,28.4,61,30.33,10.0,North,5.8,-,N/A,,Clear,360,2012-12-05 06:35:00
12:55 AM,41.0,28.4,61,30.33,10.0,North,6.9,-,N/A,,Clear,10,2012-12-05 06:55:00
1:15 AM,41.0,28.4,61,30.34,10.0,North,6.9,-,N/A,,Clear,350,2012-12-05 07:15:00
1:55 AM,39.2,26.6,61,30.36,10.0,North,8.1,-,N/A,,Clear,10,2012-12-05 07:55:00
2:15 AM,39.2,26.6,61,30.36,10.0,NNE,6.9,-,N/A,,Clear,20,2012-12-05 08:15:00
2:35 AM,37.4,26.6,65,30.36,10.0,North,5.8,-,N/A,,Clear,10,2012-12-05 08:35:00
2:55 AM,37.4,24.8,60,30.36,10.0,NNE,3.5,-,N/A,,Clear,20,2012-12-05 08:55:00
3:15 AM,35.6,24.8,65,30.36,10.0,North,3.5,-,N/A,,Clear,360,2012-12-05 09:15:00
3:35 AM,35.6,24.8,65,30.36,10.0,Calm,Calm,-,N/A,,Clear,0,2012-12-05 09:35:00
3:55 AM,35.6,24.8,65,30.36,10.0,Calm,Calm,-,N/A,,Clear,0,2012-12-05 09:55:00
4:15 AM,33.8,24.8,70,30.35,10.0,Calm,Calm,-,N/A,,Clear,0,2012-12-05 10:15:00
4:35 AM,33.8,24.8,70,30.35,10.0,Calm,Calm,-,N/A,,Clear,0,2012-12-05 10:35:00
4:55 AM,33.8,24.8,70,30.36,10.0,Calm,Calm,-,N/A,,Clear,0,2012-12-05 10:55:00
5:15 AM,30.2,23.0,75,30.37,10.0,Calm,Calm,-,N/A,,Clear,0,2012-12-05 11:15:00
5:35 AM,32.0,23.0,69,30.37,10.0,Calm,Calm,-,N/A,,Clear,0,2012-12-05 11:35:00
5:55 AM,30.2,23.0,75,30.38,10.0,Calm,Calm,-,N/A,,Clear,0,2012-12-05 11:55:00
6:15 AM,30.2,23.0,75,30.38,10.0,Calm,Calm,-,N/A,,Clear,0,2012-12-05 12:15:00
6:35 AM,30.2,23.0,75,30.38,10.0,ENE,3.5,-,N/A,,Clear,60,2012-12-05 12:35:00
6:55 AM,30.2,23.0,75,30.38,10.0,NE,4.6,-,N/A,,Clear,50,2012-12-05 12:55:00
8:35 AM,33.8,24.8,70,30.39,10.0,East,10.4,-,N/A,,Clear,80,2012-12-05 14:35:00
8:55 AM,35.6,24.8,65,30.39,10.0,East,10.4,-,N/A,,Clear,80,2012-12-05 14:55:00
9:15 AM,35.6,24.8,65,30.39,7.0,East,11.5,-,N/A,,Clear,80,2012-12-05 15:15:00
9:35 AM,37.4,26.6,65,30.39,10.0,East,9.2,-,N/A,,Clear,80,2012-12-05 15:35:00
9:55 AM,39.2,26.6,61,30.39,10.0,East,11.5,-,N/A,,Clear,90,2012-12-05 15:55:00
10:15 AM,39.2,26.6,61,30.38,10.0,East,9.2,-,N/A,,Clear,100,2012-12-05 16:15:00
10:35 AM,42.8,26.6,53,30.39,10.0,ESE,8.1,-,N/A,,Clear,120,2012-12-05 16:35:00
10:55 AM,42.8,28.4,57,30.38,10.0,ESE,9.2,-,N/A,,Clear,120,2012-12-05 16:55:00
11:15 AM,44.6,28.4,53,30.37,10.0,East,8.1,-,N/A,,Clear,100,2012-12-05 17:15:00
11:35 AM,44.6,28.4,53,30.36,10.0,SE,6.9,-,N/A,,Clear,130,2012-12-05 17:35:00
11:55 AM,46.4,28.4,50,30.35,10.0,SE,8.1,-,N/A,,Clear,130,2012-12-05 17:55:00
12:15 PM,46.4,28.4,50,30.34,10.0,ESE,6.9,-,N/A,,Clear,120,2012-12-05 18:15:00
12:35 PM,46.4,28.4,50,30.32,5.0,SE,5.8,-,N/A,,Haze,140,2012-12-05 18:35:00
12:55 PM,46.4,28.4,50,30.31,7.0,SE,8.1,-,N/A,,Clear,140,2012-12-05 18:55:00
1:15 PM,46.4,28.4,50,30.30,10.0,SE,9.2,-,N/A,,Clear,130,2012-12-05 19:15:00
1:35 PM,46.4,28.4,50,30.29,10.0,SE,5.8,-,N/A,,Clear,140,2012-12-05 19:35:00
1:55 PM,46.4,30.2,53,30.28,10.0,SE,5.8,-,N/A,,Clear,140,2012-12-05 19:55:00
2:15 PM,48.2,30.2,50,30.27,10.0,ESE,8.1,-,N/A,,Clear,120,2012-12-05 20:15:00
2:35 PM,48.2,30.2,50,30.26,10.0,SE,6.9,-,N/A,,Clear,130,2012-12-05 20:35:00
2:55 PM,48.2,30.2,50,30.26,10.0,ESE,9.2,-,N/A,,Clear,120,2012-12-05 20:55:00
3:15 PM,48.2,28.4,46,30.25,10.0,SE,8.1,-,N/A,,Clear,130,2012-12-05 21:15:00
3:35 PM,48.2,28.4,46,30.25,10.0,SE,6.9,-,N/A,,Clear,130,2012-12-05 21:35:00
3:55 PM,46.4,28.4,50,30.25,10.0,SE,6.9,-,N/A,,Clear,130,2012-12-05 21:55:00
4:15 PM,46.4,30.2,53,30.24,10.0,SE,5.8,-,N/A,,Clear,130,2012-12-05 22:15:00
4:35 PM,44.6,30.2,57,30.24,10.0,SE,5.8,-,N/A,,Clear,130,2012-12-05 22:35:00
4:55 PM,42.8,30.2,61,30.23,10.0,ESE,6.9,-,N/A,,Clear,120,2012-12-05 22:55:00
5:15 PM,42.8,30.2,61,30.23,10.0,SE,6.9,-,N/A,,Clear,130,2012-12-05 23:15:00
5:35 PM,42.8,30.2,61,30.23,10.0,SE,8.1,-,N/A,,Clear,130,2012-12-05 23:35:00
5:55 PM,42.8,32.0,66,30.22,10.0,SE,8.1,-,N/A,,Clear,130,2012-12-05 23:55:00
6:15 PM,42.8,32.0,66,30.21,10.0,SE,9.2,-,N/A,,Clear,130,2012-12-06 00:15:00
6:35 PM,42.8,32.0,66,30.21,10.0,SE,8.1,-,N/A,,Clear,130,2012-12-06 00:35:00
6:55 PM,42.8,32.0,66,30.20,10.0,SE,8.1,-,N/A,,Clear,130,2012-12-06 00:55:00
7:15 PM,42.8,33.8,70,30.20,10.0,SE,9.2,-,N/A,,Clear,130,2012-12-06 01:15:00
7:35 PM,41.0,32.0,70,30.20,10.0,ESE,6.9,-,N/A,,Clear,120,2012-12-06 01:35:00
7:55 PM,39.2,30.2,70,30.19,10.0,ESE,8.1,-,N/A,,Clear,120,2012-12-06 01:55:00
8:15 PM,39.2,30.2,70,30.18,10.0,SE,9.2,-,N/A,,Clear,130,2012-12-06 02:15:00
8:35 PM,39.2,30.2,70,30.18,10.0,SE,8.1,-,N/A,,Clear,130,2012-12-06 02:35:00
8:55 PM,39.2,32.0,75,30.18,10.0,SE,6.9,-,N/A,,Clear,130,2012-12-06 02:55:00
9:15 PM,39.2,32.0,75,30.16,10.0,SE,9.2,-,N/A,,Clear,130,2012-12-06 03:15:00
9:35 PM,39.2,32.0,75,30.16,10.0,SE,8.1,-,N/A,,Clear,130,2012-12-06 03:35:00
9:55 PM,39.2,32.0,75,30.15,10.0,SE,9.2,-,N/A,,Clear,130,2012-12-06 03:55:00
10:15 PM,39.2,32.0,75,30.15,10.0,SE,8.1,-,N/A,,Clear,130,2012-12-06 04:15:00
10:35 PM,39.2,32.0,75,30.13,10.0,SE,10.4,-,N/A,,Clear,130,2012-12-06 04:35:00
10:55 PM,39.2,32.0,75,30.12,10.0,SE,13.8,-,N/A,,Clear,130,2012-12-06 04:55:00
11:15 PM,39.2,32.0,75,30.11,10.0,SE,12.7,-,N/A,,Clear,130,2012-12-06 05:15:00
11:35 PM,39.2,33.8,81,30.11,10.0,SE,9.2,-,N/A,,Clear,140,2012-12-06 05:35:00
11:55 PM,39.2,32.0,75,30.11,10.0,SE,8.1,-,N/A,,Clear,140,2012-12-06 05:55:00